Nuuk, Greenland

6:32 AM -02 on May 27, 2017 (GMT -0200)
Nuuk

Weather History for BGGH - July, 2013

Change the Weather History Date:

Friday, July 5, 2013

  Actual Average Record
Temperature  
Mean Temperature 40 °F -  
Max Temperature 44 °F 51 °F 60 °F (1999)
Min Temperature 35 °F 39 °F 33 °F (1997)
Degree Days  
Heating Degree Days 26    
Moisture  
Dew Point 36 °F    
Average Humidity 88    
Maximum Humidity 100    
Minimum Humidity 71    
Precipitation  
Precipitation 0.00 in 0.11 in - ()
Sea Level Pressure  
Sea Level Pressure 29.60 in    
Wind  
Wind Speed 7 mph ()    
Max Wind Speed 14 mph    
Max Gust Speed -    
Visibility 5.9 miles    
Events Fog    
Averages and records for this station are not official NWS values.
T = Trace of Precipitation, MM = Missing Value Source: Averaged Metar Reports

Daily Weather History Graph

Daily Weather History Graph

Search for Another Location

Airport or City:

Trip Planner

Search our weather history database for the weather conditions in past years. The results will help you decide how hot, cold, wet, or windy it might be!

Date:

Astronomy

Jul. 05, 2013 Rise Set
Actual Time 3:13 AM -02 11:48 PM -02
Civil Twilight Sun does not set Sun does not set
Nautical Twilight Sun does not set Sun does not set
Astronomical Twilight Sun does not set Sun does not set
Moon 1:53 AM -02 (7/5) 8:57 PM -02 (7/5)
Length of Visible Light 24h 00m
Length of Day
20h 34m
Waning Crescent, 7% of the Moon is Illuminated
Jul 5
Waning Crescent
Jul 8
New
Jul 16
First Quarter
Jul 22
Full
Jul 29
Last Quarter

Hourly Weather History & Observations

Time (-02) Temp. Windchill Dew Point Humidity Pressure Visibility Wind Dir Wind Speed Gust Speed Precip Events Conditions
12:20 AM 39.2 °F 34.2 °F 35.6 °F 87% 29.59 in 6.2 mi North 6.9 mph - N/A   Unknown
12:50 AM 39.2 °F 34.2 °F 35.6 °F 87% 29.59 in 6.2 mi NNE 6.9 mph - N/A   Partly Cloudy
1:00 AM 38 °F - 36 °F 87% 29.56 in 13 mi NNW 11.5 mph - -   Scattered Clouds
1:20 AM 39.2 °F 33.6 °F 35.6 °F 87% 29.59 in 6.2 mi North 8.1 mph - N/A   Unknown
1:50 AM 37.4 °F 32.8 °F 35.6 °F 93% 29.59 in 6.2 mi North 5.8 mph - N/A   Mostly Cloudy
2:20 AM 37.4 °F 33.8 °F 35.6 °F 93% 29.59 in 6.2 mi NNE 4.6 mph - N/A   Mostly Cloudy
2:50 AM 37.4 °F 32.1 °F 35.6 °F 93% 29.59 in 6.2 mi North 6.9 mph - N/A   Mostly Cloudy
3:20 AM 37.4 °F 31.4 °F 35.6 °F 93% 29.59 in 6.2 mi North 8.1 mph - N/A   Mostly Cloudy
3:50 AM 37.4 °F 32.1 °F 35.6 °F 93% 29.59 in 6.2 mi North 6.9 mph - N/A   Mostly Cloudy
4:00 AM 36 °F - 35 °F 95% 29.57 in 8 mi NNW 10.4 mph - -   Partly Cloudy
4:20 AM 37.4 °F 32.1 °F 35.6 °F 93% 29.59 in 5.0 mi North 6.9 mph - N/A   Mostly Cloudy
4:50 AM 37.4 °F 31.4 °F 35.6 °F 93% 29.59 in - NNE 8.1 mph - N/A   Mostly Cloudy
5:20 AM 37.4 °F 31.4 °F 35.6 °F 93% 29.59 in 1.6 mi North 8.1 mph - N/A   Mist
5:50 AM 37.4 °F 31.4 °F 35.6 °F 93% 29.59 in 0.9 mi NNE 8.1 mph - N/A   Mist
6:50 AM 37.4 °F 32.8 °F 35.6 °F 93% 29.59 in 1.6 mi NNE 5.8 mph - N/A Fog Unknown
7:00 AM 37 °F - 36 °F 94% 29.59 in 9 mi NNW 5.8 mph - -   Clear
7:50 AM 37.4 °F 32.1 °F 35.6 °F 93% 29.59 in 1.2 mi NNE 6.9 mph - N/A Fog Overcast
8:50 AM 37.4 °F 32.1 °F 35.6 °F 93% 29.59 in 3.1 mi North 6.9 mph - N/A Fog Overcast
9:50 AM 39.2 °F 35.9 °F 37.4 °F 93% 29.59 in 6.2 mi NNE 4.6 mph - N/A   Overcast
10:00 AM 39 °F - 36 °F 86% 29.58 in 14 mi NW 5.8 mph - -   Clear
10:50 AM 41.0 °F 37.1 °F 37.4 °F 87% 29.59 in 6.2 mi NW 5.8 mph - N/A   Mostly Cloudy
11:50 AM 42.8 °F 40.1 °F 35.6 °F 76% 29.59 in 6.2 mi NNW 4.6 mph - N/A   Partly Cloudy
12:50 PM 44.6 °F 43.1 °F 37.4 °F 76% 29.59 in 6.2 mi NNW 3.5 mph - N/A   Partly Cloudy
1:00 PM 43 °F - 37 °F 74% 29.57 in 28 mi WNW 6.9 mph - -  
1:50 PM 46.4 °F 43.5 °F 37.4 °F 71% 29.59 in 6.2 mi NNW 5.8 mph - N/A   Partly Cloudy
2:50 PM 46.4 °F 41.1 °F 39.2 °F 76% 29.59 in 6.2 mi West 11.5 mph - N/A   Partly Cloudy
3:50 PM 44.6 °F 39.7 °F 37.4 °F 76% 29.59 in 6.2 mi WNW 9.2 mph - N/A   Partly Cloudy
4:00 PM 43 °F - 38 °F 75% 29.58 in 22 mi WNW 12.7 mph - -  
5:50 PM 42.8 °F 37.0 °F 37.4 °F 81% 29.62 in 6.2 mi NW 10.4 mph - N/A   Partly Cloudy
6:50 PM 41.0 °F 34.7 °F 35.6 °F 81% 29.62 in 6.2 mi NW 10.4 mph - N/A   Scattered Clouds
7:00 PM 40 °F - 36 °F 79% 29.61 in 31 mi WNW 13.8 mph - -  
7:50 PM 41.0 °F 35.8 °F 35.6 °F 81% 29.62 in 6.2 mi North 8.1 mph - N/A   Scattered Clouds
8:50 PM 41.0 °F 36.4 °F 37.4 °F 87% 29.65 in 6.2 mi NNW 6.9 mph - N/A   Overcast
9:20 PM 39.2 °F 35.0 °F 35.6 °F 87% 29.65 in 6.2 mi NNW 5.8 mph - N/A   Overcast
9:50 PM 39.2 °F 33.6 °F 35.6 °F 87% 29.65 in 6.2 mi NW 8.1 mph - N/A   Overcast
10:00 PM 37 °F - 35 °F 91% 29.64 in 16 mi WNW 9.2 mph - -   Overcast
10:20 PM 37.4 °F 32.8 °F 35.6 °F 93% 29.65 in 6.2 mi WNW 5.8 mph - N/A   Unknown
10:50 PM 37.4 °F 32.1 °F 35.6 °F 93% 29.65 in 1.1 mi West 6.9 mph - N/A   Mist
11:20 PM 35.6 °F 31.7 °F 35.6 °F 100% 29.68 in 1.1 mi WNW 4.6 mph - N/A   Mist
11:50 PM 35.6 °F 31.7 °F 35.6 °F 100% 29.68 in 0.6 mi SW 4.6 mph - N/A   Mist